Погода в Дьяконовском

Россия / Вологодская область     59°15′33″N   38°24′38″E
темп.,
°C
ветер,
м/с
пор.,
м/с
влажн.,
%
обл.,
%
осадки,
мм/ч
давл.,
гПа
погр.,
м
21 апреля, ср
ср2100:00+4вюв41067100 0.0 1019341
03:00+3в51181100 0.3 1017651
06:00+2в71486100 0.5 1012705
09:00+1в71496100 2.8 1008794
12:00+2в71497100 1.8 1005772
15:00+3вюв81697100 3.8 10021173
18:00+2ю71190100 0.9 1004906
21:00+2ю51095100 0.9 1006601
22 апреля, чт
чт2200:00+2ююз51098100 0.1 1007568
03:00+2ю4995100 0.1 1008349
06:00+3ю51191100 0.0 1008451
09:00+5ю6108679 0.0 1009496
12:00+8ююз7108196 0.0 1010928
15:00+8ююз7981100 0.1 1011763
18:00+8ю488492 0.0 1012424
21:00+5ююв411925 0.0 1013214
23 апреля, пт
пт2300:00+6ююв412925 0.0 1012295
03:00+5юв4119432 0.0 1012271
06:00+5ююв51295100 0.0 1012382
09:00+10ююв61382100 0.0 1011601
12:00+13ю8137169 0.1 10111348
15:00+14ю8147048 0.9 10101597
18:00+10ююз8148495 0.9 10111056
21:00+7ю3694100 4.3 1013470
24 апреля, сб
сб2400:00+6ююв2393100 0.8 1012270
03:00+6всв379590 0.8 1009328
06:00+7юв5138875 0.0 1007483
09:00+10юв71378100 0.1 1005965
12:00+12юв71574100 0.3 10031542
15:00+3зюз5896100 1.3 1005351
18:00+3з4897100 1.3 1005499
21:00+3зсз3689100 1.3 1006709
25 апреля, вс
вс2500:00+3зсз3693100 0.2 1005493
03:00+2зсз3793100 0.3 1004569
06:00+2зсз4892100 0.2 1003487
09:00+4зсз4782100 0.2 1003702
12:00+6зсз5769100 0.3 10031361
15:00+6з5764100 0.7 10041302
18:00+5зюз5877100 0.6 1004750
21:00+3зюз4988100 0.8 1005672